Starlink 5983

operational
NORAD ID: 57224 Int'l Des: 2023-094 Owner: SPXS Country: US Constellation: starlink
LEOCIRCULAR

Über Starlink 5983

Beschreibung wird geladen...

Live-Position

3D-Globus wird geladen...

Nächste Überflüge

Höhenverlauf

Altitude vs Time

uPlot chart will show altitude changes over time

Zweizeiliger Elementsatz

1 57224U 23094G 25304.56306374 -.00004507 00000-0 -31883-3 0 9990
2 57224 43.0046 12.1681 0001634 258.7830 101.2829 15.02527069127690
Epoch: 31. Okt. 2025 • Age: 19 hours

Aktueller Status

Höhe 564.7 km
Geschwindigkeit 7.58 km/s
Subsatellitenpunkt -25.53°S, 57.22°E
Startdatum 7. Juli 2023
Alter 2.3 years
Typ internet

Technische Details

Klassifizierung Payload
Masse 305.00 kg
Trockenmasse 290.00 kg
Gesamtmasse 305.00 kg
Länge 0.20 m
Durchmesser 2.80 m
Spannweite 9.00 m
Form Box + pan
Hersteller SPXS
Bus-Typ Starlink
Phasenstatus In Orbit
Besitzer/Staat SPXS/US

Große Konstellationen

Loading constellations...